Location: Unspecified
(56.5167°N, 0.0000°E)
Time: 16:24:38
(UTC+02:00)

Resurs 1-4 Rocket - Visible Passes

Search period start: 04 October 2022 00:00
Search period end: 14 October 2022 00:00
Orbit: 799 x 814 km, 98.7° (Epoch: 03 October)

Date Brightness Start Highest point End Pass type
(mag) Time Alt. Az. Time Alt. Az. Time Alt. Az.
04 Oct 4.1 02:44:29 10° NE 02:47:16 22° ENE 02:47:16 22° ENE visible
04 Oct 2.4 04:23:56 10° NNE 04:28:19 58° NNW 04:28:19 58° NNW visible
04 Oct 3.7 06:04:40 10° N 06:08:13 19° NW 06:09:23 17° WNW visible
05 Oct 4.5 02:20:20 10° NE 02:22:10 16° ENE 02:22:10 16° ENE visible
05 Oct 2.7 03:59:12 10° NNE 04:03:14 53° NNE 04:03:14 53° NNE visible
05 Oct 3.3 05:39:38 10° N 05:43:51 25° NW 05:44:18 24° WNW visible
06 Oct 4.8 01:56:53 10° ENE 01:57:05 10° ENE 01:57:05 10° ENE visible
06 Oct 3.2 03:34:32 10° NNE 03:38:09 40° NE 03:38:09 40° NE visible
06 Oct 3.0 05:14:42 10° N 05:19:13 34° NW 05:19:13 34° NW visible
06 Oct 4.2 06:56:52 10° NNW 06:57:49 10° NW 06:58:46 10° NW visible
07 Oct 3.8 03:09:59 10° NNE 03:13:03 29° NE 03:13:03 29° NE visible
07 Oct 2.7 04:49:50 10° N 04:54:07 44° NW 04:54:07 44° NW visible
07 Oct 4.0 06:31:00 10° NNW 06:33:35 14° NW 06:35:11 12° WNW visible
08 Oct 4.2 02:45:34 10° NE 02:47:58 21° ENE 02:47:58 21° ENE visible
08 Oct 2.7 04:25:03 10° NNE 04:29:02 50° N 04:29:02 50° N visible
08 Oct 3.7 06:05:47 10° N 06:09:18 18° NW 06:10:06 18° WNW visible
09 Oct 4.6 02:21:24 10° NE 02:22:52 15° ENE 02:22:52 15° ENE visible
09 Oct 3.0 04:00:18 10° NNE 04:03:56 45° NNE 04:03:56 45° NNE visible
09 Oct 3.4 05:40:45 10° N 05:44:56 25° NW 05:45:00 24° NW visible
10 Oct 3.5 03:35:38 10° NNE 03:38:51 36° NE 03:38:51 36° NE visible
10 Oct 3.1 05:15:48 10° N 05:19:55 32° NW 05:19:55 32° NW visible
10 Oct 4.2 06:58:03 10° NNW 06:58:54 10° NW 06:59:45 10° NW visible
11 Oct 3.9 03:11:04 10° NNE 03:13:46 27° NE 03:13:46 27° NE visible
11 Oct 2.9 04:50:56 10° N 04:54:49 40° NNW 04:54:49 40° NNW visible
11 Oct 4.0 06:32:08 10° NNW 06:34:41 14° NW 06:35:53 13° NW visible
12 Oct 4.4 02:46:39 10° NE 02:48:40 19° NE 02:48:40 19° NE visible
12 Oct 3.0 04:26:08 10° NNE 04:29:44 43° N 04:29:44 43° N visible
12 Oct 3.7 06:06:53 10° N 06:10:23 18° NW 06:10:48 18° NW visible
13 Oct 4.7 02:22:27 10° NE 02:23:35 14° NE 02:23:35 14° NE visible
13 Oct 3.3 04:01:23 10° NNE 04:04:38 39° NNE 04:04:38 39° NNE visible
13 Oct 3.4 05:41:50 10° N 05:45:42 24° NW 05:45:42 24° NW visible
